sat.trackr.live / text

‹ back to catalog

STARLINK-4467

NORAD 53686 · 2022-105AQ

PAYLOAD ACTIVE UNKNOWN

§ Identity

Operator
Country
US
Launch date
2022-08-31
Launch site
AFWTR
Launch vehicle
Mass (kg)
RCS (m²)

Purposes: comms

External: N2YO · Heavens-Above · Gunter

§ Orbital elements

Epoch: 2026-05-25T03:28:51.214944Z

Period
95.64 min
Inclination
97.4562°
Eccentricity
0.0001271
Mean motion
15.05678300 rev/d
Perigee alt
548.5 km
Apogee alt
550.3 km
Semi-major
6,927.6 km
B*
9.8067e-4
RAAN
25.0492°
Arg perigee
66.0839°
Mean anomaly
294.0521°
Rev number
20,473

§ Raw data

STARLINK-44671 53686U 22105AQ  26145.14503721  .00014130  00000+0  98067-3 0  99902 53686  97.4562  25.0492 0001271  66.0839 294.0521 15.05678300204732

JSON: /api/v1/satellites/53686 · /tle

For live sub-satellite position, see the globe view (requires WebGL).

§ Visibility from observer

Set your observer location to see the next 7 days of passes ≥ 10°. The values pass through the URL so the page stays shareable.

No JS? Fill the form by hand. The geolocation button needs JavaScript.